Date String (YYYY-MM-DD hh:mm:ss) UTC,Instrument flags,absolute air pressure of the measurement (hPa),sample flow rate (lpm),inlet stack bypass flow (lpm),air temperature of the measurement (°C),ambient temperature measured by the external sensor (°C),aerosol sample conditioner tube jacket temperature (°C),OPC LED temperature (°C),internal box temperature (°C),relative humidity of the measurement (%),span deviation,mass concentration of particles derived from Lorenz-Mie calculation of OPC scattering (μg/m³),mass concentration of particles derived from Lorenz-Mie calculation of OPC scattering (μg/m³),mass concentration of particles derived from Lorenz-Mie calculation of OPC scattering (μg/m³)
DateTimeUTC,F1_M11,P_M11,Q1_M11,Q2_M11,T1_M11,T2_M11,T3_M11,T4_M11,T5_M11,U1_M11,ZSPAN_M11,X2_M11,X0_M11,X1_M11
2024-01-21 03:00:00,SystemResetWarning,0823.8,5.00,000.00,020.2,019.4,000.0,028.5,021.4,14.4,0001.7,0018.89,0029.41,0017.55
2024-01-21 03:01:00,SystemResetWarning,0823.8,4.99,000.00,020.2,019.4,000.0,028.5,021.5,14.4,0001.5,0018.94,0028.97,0017.59
2024-01-21 03:02:00,SystemResetWarning,0823.8,4.99,000.00,020.2,019.4,000.0,028.5,021.5,14.3,0001.5,0018.97,0028.38,0017.63
2024-01-21 03:03:00,SystemResetWarning,0823.8,5.00,000.00,020.2,019.4,000.0,028.5,021.4,14.3,0001.4,0018.97,0028.50,0017.64
2024-01-21 03:04:00,SystemResetWarning,0823.8,5.01,000.00,020.2,019.4,000.0,028.5,021.4,14.3,0001.3,0018.96,0028.46,0017.68
2024-01-21 03:05:00,SystemResetWarning,0823.8,5.01,000.00,020.2,019.4,000.0,028.5,021.4,14.3,0001.4,0019.03,0028.07,0017.75
2024-01-21 03:06:00,SystemResetWarning,0823.8,5.01,000.00,020.2,019.4,000.0,028.5,021.4,14.3,0001.4,0019.00,0027.34,0017.77
2024-01-21 03:07:00,SystemResetWarning,0823.8,5.00,000.00,020.2,019.4,000.0,028.5,021.4,14.3,0001.6,0019.03,0027.34,0017.76
2024-01-21 03:08:00,SystemResetWarning,0823.7,4.99,000.00,020.2,019.4,000.0,028.5,021.5,14.3,0001.9,0019.03,0027.02,0017.75
2024-01-21 03:09:00,SystemResetWarning,0823.8,5.01,000.00,020.2,019.4,000.0,028.5,021.5,14.2,0001.6,0019.05,0026.66,0017.74
2024-01-21 03:10:00,SystemResetWarning,0823.8,5.00,000.00,020.2,019.4,000.0,028.5,021.5,14.2,0001.4,0019.06,0027.22,0017.71
2024-01-21 03:11:00,SystemResetWarning,0823.8,5.00,000.00,020.2,019.4,000.0,028.5,021.5,14.2,0001.8,0019.05,0027.97,0017.71
2024-01-21 03:12:00,SystemResetWarning,0823.8,5.00,000.00,020.2,019.4,000.0,028.5,021.4,14.4,0002.2,0019.03,0028.44,0017.73
2024-01-21 03:13:00,SystemResetWarning,0823.8,5.00,000.00,020.2,019.4,000.0,028.5,021.4,14.6,0002.4,0019.02,0028.79,0017.72
2024-01-21 03:14:00,SystemResetWarning,0823.8,5.00,000.00,020.2,019.4,000.0,028.5,021.4,14.5,0002.4,0019.02,0028.83,0017.75
2024-01-21 03:15:00,SystemResetWarning,0823.8,5.00,000.00,020.2,019.4,000.0,028.5,021.4,14.4,0002.4,0019.08,0028.89,0017.77
2024-01-21 03:16:00,SystemResetWarning,0823.8,5.00,000.00,020.2,019.4,000.0,028.5,021.4,14.4,0002.4,0019.02,0028.40,0017.74
2024-01-21 03:17:00,SystemResetWarning,0823.8,5.00,000.00,020.2,019.4,000.0,028.5,021.4,14.4,0002.5,0019.01,0028.07,0017.72
2024-01-21 03:18:00,SystemResetWarning,0823.8,5.00,000.00,020.2,019.4,000.0,028.5,021.4,14.4,0002.4,0018.96,0027.81,0017.72
2024-01-21 03:19:00,SystemResetWarning,0823.7,5.00,000.00,020.1,019.3,000.0,028.5,021.3,14.4,0002.5,0018.94,0027.94,0017.72
2024-01-21 03:20:00,SystemResetWarning,0823.7,5.00,000.00,020.1,019.3,000.0,028.5,021.4,14.4,0002.7,0018.93,0029.26,0017.74
2024-01-21 03:21:00,SystemResetWarning,0823.7,5.00,000.00,020.1,019.3,000.0,028.5,021.4,14.4,0002.7,0018.98,0030.02,0017.77
2024-01-21 03:22:00,SystemResetWarning,0823.7,5.00,000.00,020.1,019.3,000.0,028.5,021.3,14.4,0002.8,0019.06,0029.26,0017.78
2024-01-21 03:23:00,SystemResetWarning,0823.7,5.00,000.00,020.1,019.4,000.0,028.5,021.3,14.4,0002.9,0019.08,0028.71,0017.77
2024-01-21 03:24:00,SystemResetWarning,0823.6,5.00,000.00,020.1,019.3,000.0,028.5,021.3,14.4,0003.2,0019.06,0028.39,0017.78
2024-01-21 03:25:00,SystemResetWarning,0823.6,5.00,000.00,020.1,019.3,000.0,028.5,021.2,14.5,0003.2,0019.07,0028.00,0017.80
2024-01-21 03:26:00,SystemResetWarning,0823.5,5.00,000.00,020.0,019.3,000.0,028.5,021.1,14.5,0003.3,0019.07,0028.32,0017.79
2024-01-21 03:27:00,SystemResetWarning,0823.6,5.00,000.00,020.0,019.2,000.0,028.5,021.1,14.6,0003.3,0019.06,0028.28,0017.78
2024-01-21 03:28:00,SystemResetWarning,0823.6,5.00,000.00,020.0,019.2,000.0,028.5,021.0,14.6,0003.4,0019.11,0029.46,0017.79
2024-01-21 03:29:00,SystemResetWarning,0823.5,5.00,000.00,019.9,019.2,000.0,028.4,021.0,14.6,0003.4,0019.16,0029.90,0017.80
2024-01-21 03:30:00,SystemResetWarning,0823.6,5.00,000.00,019.9,019.1,000.0,028.4,021.0,14.6,0003.2,0019.20,0029.63,0017.81
2024-01-21 03:31:00,SystemResetWarning,0823.7,5.01,000.00,019.9,019.1,000.0,028.4,021.1,14.6,0003.0,0019.16,0029.02,0017.78
2024-01-21 03:32:00,SystemResetWarning,0823.7,5.01,000.00,019.9,019.1,000.0,028.4,021.1,14.7,0003.2,0019.10,0027.08,0017.75
2024-01-21 03:33:00,SystemResetWarning,0823.6,5.00,000.00,019.9,019.1,000.0,028.4,021.1,14.7,0003.2,0019.06,0027.02,0017.75
2024-01-21 03:34:00,SystemResetWarning,0823.5,5.00,000.00,019.9,019.2,000.0,028.4,021.1,14.7,0002.9,0019.06,0027.47,0017.77
2024-01-21 03:35:00,SystemResetWarning,0823.6,5.00,000.00,019.9,019.2,000.0,028.4,021.1,14.7,0002.5,0019.09,0027.76,0017.78
2024-01-21 03:36:00,SystemResetWarning,0823.6,4.99,000.00,019.9,019.2,000.0,028.4,021.2,14.6,0002.1,0019.13,0028.09,0017.77
2024-01-21 03:37:00,SystemResetWarning,0823.5,4.99,000.00,019.9,019.2,000.0,028.4,021.2,14.6,0001.8,0019.17,0028.00,0017.78
2024-01-21 03:38:00,SystemResetWarning,0823.5,5.00,000.00,019.9,019.2,000.0,028.4,021.2,14.6,0002.1,0019.24,0028.98,0017.81
2024-01-21 03:39:00,SystemResetWarning,0823.4,5.01,000.00,019.9,019.2,000.0,028.4,021.2,14.6,0001.9,0019.26,0028.16,0017.84
2024-01-21 03:40:00,SystemResetWarning,0823.4,5.01,000.00,019.9,019.2,000.0,028.3,021.2,14.7,0001.8,0019.24,0027.80,0017.86
2024-01-21 03:41:00,SystemResetWarning,0823.4,5.00,000.00,019.9,019.2,000.0,028.3,021.2,14.8,0002.0,0019.17,0027.49,0017.85
2024-01-21 03:42:00,SystemResetWarning,0823.5,4.99,000.00,019.9,019.2,000.0,028.3,021.2,14.9,0002.2,0019.22,0027.36,0017.87
2024-01-21 03:43:00,SystemResetWarning,0823.5,4.99,000.00,019.9,019.2,000.0,028.3,021.2,15.1,0002.3,0019.29,0027.63,0017.88
2024-01-21 03:44:00,SystemResetWarning,0823.5,5.01,000.00,019.9,019.2,000.0,028.3,021.2,15.0,0002.2,0019.32,0028.06,0017.90
2024-01-21 03:45:00,SystemResetWarning,0823.5,5.01,000.00,019.9,019.2,000.0,028.3,021.2,14.9,0002.0,0019.34,0027.99,0017.90
2024-01-21 03:46:00,SystemResetWarning,0823.5,5.00,000.00,019.9,019.2,000.0,028.3,021.2,14.9,0001.9,0019.39,0028.16,0017.89
2024-01-21 03:47:00,SystemResetWarning,0823.5,5.00,000.00,019.9,019.3,000.0,028.3,021.2,14.9,0002.0,0019.42,0028.01,0017.91
2024-01-21 03:48:00,SystemResetWarning,0823.6,5.01,000.00,019.9,019.3,000.0,028.3,021.2,14.9,0002.4,0019.38,0027.92,0017.93
2024-01-21 03:49:00,SystemResetWarning,0823.7,5.00,000.00,019.9,019.2,000.0,028.3,021.2,14.9,0002.2,0019.32,0027.13,0017.94
2024-01-21 03:50:00,SystemResetWarning,0823.6,4.99,000.00,019.9,019.2,000.0,028.3,021.2,14.9,0002.1,0019.30,0027.46,0017.94
2024-01-21 03:51:00,SystemResetWarning,0823.5,4.99,000.00,019.9,019.2,000.0,028.3,021.2,14.9,0001.7,0019.36,0027.37,0017.97
2024-01-21 03:52:00,SystemResetWarning,0823.4,5.00,000.00,019.9,019.2,000.0,028.3,021.2,14.9,0002.0,0019.44,0028.28,0018.02
2024-01-21 03:53:00,SystemResetWarning,0823.4,5.01,000.00,019.9,019.2,000.0,028.3,021.2,14.9,0001.9,0019.50,0028.57,0018.06
2024-01-21 03:54:00,SystemResetWarning,0823.4,5.01,000.00,019.9,019.2,000.0,028.3,021.2,15.0,0001.6,0019.52,0028.73,0018.11
2024-01-21 03:55:00,SystemResetWarning,0823.4,5.00,000.00,019.9,019.2,000.0,028.3,021.2,15.1,0001.7,0019.59,0028.84,0018.14
2024-01-21 03:56:00,SystemResetWarning,0823.4,4.99,000.00,019.9,019.2,000.0,028.3,021.2,15.0,0001.9,0019.64,0029.05,0018.16
2024-01-21 03:57:00,SystemResetWarning,0823.4,5.00,000.00,019.9,019.2,000.0,028.3,021.2,14.9,0002.1,0019.65,0029.35,0018.19
2024-01-21 03:58:00,SystemResetWarning,0823.5,5.00,000.00,019.9,019.2,000.0,028.3,021.2,14.8,0001.7,0019.72,0029.42,0018.23
2024-01-21 03:59:00,SystemResetWarning,0823.5,5.00,000.00,019.9,019.2,000.0,028.3,021.2,14.8,0001.4,0019.86,0029.73,0018.32
